Home > Weather > Funafuti > Past weeks

Flag for Tuvalu Weather for the Past 2 Weeks in Funafuti, Tuvalu

Now
82 °F

Passing clouds.


Feels Like: 92 °F
Forecast: 82 / 90 °F
Wind: 1 mph from North

Location: Funafuti

Current Time: Feb 13, 2016 at 2:35:10 AM

Latest Report: Feb 13, 2016 at 2:00 AM


Visibility: N/A

Pressure: 29.71 "Hg

Humidity: 89%

Dew point: 79 °F

Location of FunafutiLocation

Historic Weather in Funafuti — Graph

°F

Funafuti Temperature Yesterday

Maximum temperature yesterday: 90 °F (at 12:00 PM)
Minimum temperature yesterday: 82 °F (at 6:00 PM)
Average temperature yesterday: 86 °F

High & Low Weather Summary for the Past Weeks

 TemperatureHumidityPressure
High91 °F (Jan 31, 11:00 AM)100% (Feb 11, 3:00 AM)29.89 "Hg (Feb 11, 3:00 AM)
Low79 °F (Feb 2, 2:00 AM)63% (Jan 31, 3:00 PM)29.62 "Hg (Feb 5, 2:00 AM)
Average85 °F82%29.75 "Hg
* Reported Jan 29 1:00 AM — Feb 13 1:00 AM, Funafuti, Weather by CustomWeather, © 2016

Note: Actual official high and low records may vary slightly from our data, if they occured in-between our weather recording intervals... More about our weather records

Advertising

Funafuti Weather History for the Previous 24 Hours

 ConditionsComfort  
Time TempWeatherWind HumidityBarometerVisibility
1:00 AM
Sat, Feb 13
82 °FPassing clouds.1 mph89%29.71 "HgN/A
12:00 AM82 °FPassing clouds.1 mph89%29.74 "HgN/A
11:00 PM
Fri, Feb 12
84 °FScattered showers. Mostly cloudy.2 mph84%29.77 "HgN/A
10:00 PM84 °FScattered showers. Mostly cloudy.No wind89%29.77 "HgN/A
9:00 PM84 °FScattered showers. Partly cloudy.No wind89%29.77 "HgN/A
8:00 PM84 °FScattered showers. Partly cloudy.No wind89%29.77 "HgN/A
7:00 PM84 °FSprinkles. Passing clouds.1 mph89%29.74 "HgN/A
6:00 PM82 °FScattered showers. Scattered clouds.1 mph89%29.71 "HgN/A
5:00 PM90 °FScattered showers. More clouds than sun.2 mph71%29.71 "HgN/A
4:00 PM90 °FScattered showers. More clouds than sun.2 mph71%29.71 "HgN/A
3:00 PM90 °FScattered showers. More clouds than sun.2 mph79%29.71 "HgN/A
2:00 PM90 °FBroken clouds.2 mph75%29.71 "HgN/A
1:00 PM90 °FBroken clouds.2 mph79%29.74 "HgN/A
12:00 PM90 °FScattered showers. Broken clouds.3 mph79%29.74 "HgN/A
11:00 AM88 °FBroken clouds.2 mph75%29.77 "HgN/A
10:00 AM88 °FBroken clouds.3 mph79%29.74 "HgN/A
9:00 AM88 °FScattered showers. Broken clouds.3 mph79%29.80 "HgN/A
8:00 AM86 °FBroken clouds.3 mph84%29.77 "HgN/A
7:00 AM84 °FScattered clouds.2 mph84%29.77 "HgN/A
6:00 AM84 °FPassing clouds.2 mph89%29.74 "HgN/A
4:00 AM84 °FPassing clouds.3 mph84%29.71 "HgN/A
3:00 AM84 °FPassing clouds.3 mph89%29.74 "HgN/A
2:00 AM84 °FPartly cloudy.3 mph84%29.74 "HgN/A
Weather by CustomWeather, © 2016

See weather overviewHow to use our weather pages